Regional Weather Roundup
Issued by NWS

Home | Current Version | Previous Version | Text Only | Print | Product List | Glossary Off
Versions: 1 2 3 4 5 6 7 8 9 10 11 12 13 14 15 16 17 18 19 20 21 22 23 24 25 26 27 28 29 30 31 32 33 34 35 36 37 38 39 40 41 42 43 44 45 46 47 48 49 50

000
ASUS45 KCYS 210810
RWRWY

WYOMING REGIONAL WEATHER ROUNDUP
NATIONAL WEATHER SERVICE CHEYENNE WY
200 AM MDT THU AUG 21 2014

NOTE:  "FAIR" INDICATES FEW OR NO CLOUDS BELOW 12,000 FEET
WITH NO SIGNIFICANT WEATHER AND/OR OBSTRUCTIONS TO VISIBILITY.

WYZ001-210900-
YELLOWSTONE NATIONAL PARK

CITY           SKY/WX    TMP DP  RH WIND       PRES   REMARKS
LK YELLOWSTONE   N/A     43  42  97 NW3       30.19S
W YELLOWSTONE  NOT AVBL

$$
WYZ002>013-054>058-071-098>099-210900-
NORTHERN WYOMING

CITY           SKY/WX    TMP DP  RH WIND       PRES   REMARKS
JACKSON        CLOUDY    50  50 100 CALM      30.14S
CODY           MOCLDY    57  45  62 W6        30.00S
GREYBULL       PTCLDY    61  52  72 W12       29.92F
WORLAND        PTCLDY    55  47  74 S5        29.95S
SHERIDAN       PTCLDY    62  49  62 CALM      29.95S
BUFFALO        CLOUDY    61  48  62 NW8       30.00R
GILLETTE       CLOUDY    61  58  90 NE6       29.94F
HULETT         FAIR      59  50  72 MISG      29.94
NEWCASTLE      FAIR      66  46  48 MISG      29.92

$$
WYZ014>020-022>026-101>103-210900-
CENTRAL WYOMING

CITY           SKY/WX    TMP DP  RH WIND       PRES   REMARKS
BIG PINEY      MOCLDY    48  45  89 CALM      30.18R
PINEDALE       CLOUDY    50  45  81 SE3       30.19S
DUBOIS         FAIR      46  41  81 NW13      30.12S
LANDER         LGT RAIN  59  45  59 SE3       30.03R
RIVERTON       CLOUDY    61  40  45 W8        30.03S
CASPER         PTCLDY    56  43  61 SW5       30.00F
DOUGLAS        CLOUDY    64  49  57 VRB3      29.99R

$$
WYZ021-027>030-104>119-210900-
SOUTHERN WYOMING

CITY           SKY/WX    TMP DP  RH WIND       PRES   REMARKS
EVANSTON       LGT RAIN  50  49  96 E8        30.21F
KEMMERER       CLOUDY    50  46  87 S8        30.20S
FORT BRIDGER     N/A     51  51  97 S9        30.24F
ROCK SPRINGS   CLOUDY    50  45  83 W8        30.20F
DIXON          PTSUNNY   52  50  92 NE3       30.20S
RAWLINS        PTCLDY    54  47  77 W15G23    30.16R
SARATOGA       FAIR      50  46  87 MISG      30.18S
LARAMIE        PTCLDY    52  42  69 S15       30.14R
CHEYENNE       PTCLDY    60  45  57 W21       30.08R
TORRINGTON     CLEAR     62  48  60 CALM      29.91R
PINE BLUFFS    FAIR      63  54  72 W3        30.01S

$$



USA.gov is the U.S. government's official web portal to all federal, state and local government web resources and services.